Terminal Aerodrome Forecast
Issued by NWS

Home | Current Version | Previous Version | Graphics & Text | Print | Product List | Glossary Off
Versions: 1 2 3 4 5 6 7 8 9 10 11 12 13 14 15 16 17 18 19 20 21 22 23 24 25 26 27 28 29 30 31 32 33 34

000
FTUS43 KDDC 171720
TAFHYS
TAF
KHYS 171720Z 1718/1818 10010KT P6SM BKN015 OVC150
     FM180000 09010KT P6SM OVC007
      TEMPO 1800/1803 P6SM -RASN OVC003
     FM180300 08007KT 2SM -SN OVC003=

USA.gov is the U.S. government's official web portal to all federal, state and local government web resources and services.